TimeEST,TemperatureF,Dew PointF,Humidity,Sea Level PressureIn,VisibilityMPH,Wind Direction,Wind SpeedMPH,Gust SpeedMPH,PrecipitationIn,Events,Conditions,WindDirDegrees,DateUTC
12:15 AM,28.4,24.8,86,29.89,10.0,SW,3.5,-,N/A,,Clear,230,2013-01-13 05:15:00
12:34 AM,30.2,24.8,80,29.90,10.0,SW,4.6,-,N/A,,Clear,220,2013-01-13 05:34:00
12:55 AM,30.2,23.0,75,29.92,10.0,SW,4.6,-,N/A,,Scattered Clouds,230,2013-01-13 05:55:00
1:14 AM,28.4,23.0,80,29.91,10.0,SW,3.5,-,N/A,,Mostly Cloudy,230,2013-01-13 06:14:00
1:35 AM,28.4,23.0,80,29.89,10.0,West,4.6,-,N/A,,Mostly Cloudy,280,2013-01-13 06:35:00
1:55 AM,28.4,23.0,80,29.88,10.0,Calm,Calm,-,N/A,,Scattered Clouds,0,2013-01-13 06:55:00
2:14 AM,28.4,23.0,80,29.88,10.0,Calm,Calm,-,N/A,,Scattered Clouds,0,2013-01-13 07:14:00
2:35 AM,28.4,23.0,80,29.88,10.0,Calm,Calm,-,N/A,,Mostly Cloudy,0,2013-01-13 07:35:00
2:54 AM,28.4,23.0,80,29.88,10.0,NNW,4.6,-,N/A,,Overcast,340,2013-01-13 07:54:00
3:15 AM,28.4,23.0,80,29.88,10.0,NNW,4.6,-,N/A,,Scattered Clouds,330,2013-01-13 08:15:00
3:35 AM,28.4,23.0,80,29.89,10.0,North,6.9,-,N/A,,Mostly Cloudy,350,2013-01-13 08:35:00
3:54 AM,28.4,23.0,80,29.89,10.0,North,9.2,-,N/A,,Overcast,350,2013-01-13 08:54:00
4:15 AM,28.4,21.2,74,29.88,10.0,North,12.7,-,N/A,,Overcast,350,2013-01-13 09:15:00
4:35 AM,28.4,21.2,74,29.87,10.0,North,9.2,-,N/A,,Overcast,360,2013-01-13 09:35:00
4:54 AM,28.4,21.2,74,29.85,10.0,North,8.1,-,N/A,,Overcast,360,2013-01-13 09:54:00
5:15 AM,28.4,21.2,74,29.84,10.0,North,12.7,17.3,N/A,,Overcast,350,2013-01-13 10:15:00
5:34 AM,26.6,21.2,80,29.85,10.0,North,11.5,17.3,N/A,,Overcast,360,2013-01-13 10:34:00
5:55 AM,26.6,21.2,80,29.87,10.0,North,11.5,-,N/A,,Overcast,350,2013-01-13 10:55:00
6:15 AM,26.6,21.2,80,29.87,10.0,North,10.4,17.3,N/A,,Overcast,360,2013-01-13 11:15:00
6:34 AM,26.6,21.2,80,29.87,10.0,North,10.4,16.1,N/A,,Overcast,360,2013-01-13 11:34:00
6:55 AM,26.6,19.4,74,29.87,10.0,NNW,9.2,-,N/A,,Overcast,340,2013-01-13 11:55:00
7:14 AM,26.6,19.4,74,29.88,10.0,North,10.4,-,N/A,,Overcast,360,2013-01-13 12:14:00
7:35 AM,26.6,19.4,74,29.89,10.0,North,10.4,-,N/A,,Overcast,350,2013-01-13 12:35:00
7:55 AM,26.6,19.4,74,29.88,10.0,North,9.2,-,N/A,,Overcast,360,2013-01-13 12:55:00
8:14 AM,26.6,19.4,74,29.90,10.0,North,9.2,-,N/A,,Overcast,10,2013-01-13 13:14:00
8:35 AM,26.6,19.4,74,29.89,10.0,North,8.1,-,N/A,,Overcast,350,2013-01-13 13:35:00
8:54 AM,26.6,19.4,74,29.91,10.0,North,8.1,-,N/A,,Overcast,350,2013-01-13 13:54:00
9:15 AM,26.6,19.4,74,29.91,10.0,North,6.9,-,N/A,,Overcast,350,2013-01-13 14:15:00
9:34 AM,26.6,19.4,74,29.91,10.0,North,5.8,-,N/A,,Overcast,350,2013-01-13 14:34:00
10:15 AM,26.6,19.4,74,29.91,10.0,North,6.9,-,N/A,Snow,Light Snow,350,2013-01-13 15:15:00
10:34 AM,26.6,19.4,74,29.92,10.0,NNW,9.2,-,N/A,Snow,Light Snow,340,2013-01-13 15:34:00
10:55 AM,26.6,19.4,74,29.93,10.0,NNW,9.2,-,N/A,,Overcast,330,2013-01-13 15:55:00
11:14 AM,26.6,19.4,74,29.92,10.0,NNW,6.9,-,N/A,,Overcast,330,2013-01-13 16:14:00
11:35 AM,26.6,19.4,74,29.91,10.0,NNW,9.2,-,N/A,Snow,Light Snow,330,2013-01-13 16:35:00
11:55 AM,26.6,19.4,74,29.90,10.0,NNW,10.4,-,N/A,,Overcast,340,2013-01-13 16:55:00
12:14 PM,26.6,19.4,74,29.91,10.0,NNW,8.1,-,N/A,,Overcast,330,2013-01-13 17:14:00
12:35 PM,26.6,19.4,74,29.90,10.0,NW,9.2,-,N/A,Snow,Light Snow,320,2013-01-13 17:35:00
12:54 PM,26.6,19.4,74,29.89,10.0,NNW,9.2,16.1,N/A,Snow,Light Snow,330,2013-01-13 17:54:00
1:14 PM,26.6,19.4,74,29.86,10.0,NNW,6.9,-,N/A,Snow,Light Snow,330,2013-01-13 18:14:00
1:54 PM,26.6,21.2,80,29.86,10.0,NNW,9.2,-,N/A,Snow,Light Snow,340,2013-01-13 18:54:00
2:15 PM,26.6,21.2,80,29.88,10.0,NNW,8.1,16.1,N/A,,Overcast,340,2013-01-13 19:15:00
2:35 PM,26.6,21.2,80,29.88,10.0,NNW,8.1,-,N/A,,Overcast,330,2013-01-13 19:35:00
2:54 PM,26.6,21.2,80,29.89,10.0,NW,9.2,-,N/A,,Overcast,320,2013-01-13 19:54:00
3:15 PM,26.6,21.2,80,29.90,10.0,NNW,5.8,-,N/A,,Overcast,330,2013-01-13 20:15:00
3:34 PM,26.6,21.2,80,29.89,10.0,NW,6.9,-,N/A,,Overcast,310,2013-01-13 20:34:00
3:55 PM,26.6,21.2,80,29.91,4.0,WNW,6.9,-,N/A,,Overcast,300,2013-01-13 20:55:00
4:15 PM,26.6,21.2,80,29.91,3.0,WNW,5.8,-,N/A,,Overcast,300,2013-01-13 21:15:00
4:34 PM,26.6,23.0,86,29.91,2.5,North,4.6,-,N/A,,Overcast,350,2013-01-13 21:34:00
4:55 PM,24.8,21.2,86,29.90,3.0,NNW,8.1,-,N/A,,Overcast,330,2013-01-13 21:55:00
5:14 PM,24.8,21.2,86,29.91,5.0,NNW,8.1,-,N/A,,Overcast,340,2013-01-13 22:14:00
5:35 PM,24.8,21.2,86,29.90,7.0,NW,6.9,-,N/A,,Overcast,310,2013-01-13 22:35:00
5:55 PM,24.8,21.2,86,29.90,5.0,NNW,8.1,-,N/A,Snow,Light Snow,330,2013-01-13 22:55:00
6:14 PM,24.8,21.2,86,29.88,7.0,NNW,6.9,-,N/A,,Overcast,340,2013-01-13 23:14:00
6:35 PM,24.8,19.4,80,29.87,10.0,NNW,5.8,-,N/A,,Overcast,330,2013-01-13 23:35:00
6:54 PM,24.8,19.4,80,29.88,10.0,NNW,5.8,-,N/A,,Overcast,340,2013-01-13 23:54:00
7:15 PM,24.8,19.4,80,29.88,10.0,North,8.1,-,N/A,,Overcast,350,2013-01-14 00:15:00
7:35 PM,24.8,19.4,80,29.90,10.0,NNW,5.8,-,N/A,Snow,Light Snow,330,2013-01-14 00:35:00
7:54 PM,24.8,19.4,80,29.91,10.0,NW,5.8,-,N/A,Snow,Light Snow,310,2013-01-14 00:54:00
8:15 PM,24.8,19.4,80,29.92,10.0,NW,5.8,-,N/A,Snow,Light Snow,320,2013-01-14 01:15:00
8:34 PM,23.0,19.4,86,29.92,4.0,WNW,8.1,-,N/A,Snow,Light Snow,300,2013-01-14 01:34:00
8:55 PM,23.0,19.4,86,29.92,3.0,West,11.5,-,N/A,Snow,Light Snow,280,2013-01-14 01:55:00
9:14 PM,21.2,17.6,86,29.91,2.5,WNW,9.2,-,N/A,Snow,Light Snow,300,2013-01-14 02:14:00
9:35 PM,21.2,17.6,86,29.93,4.0,WNW,9.2,-,N/A,Snow,Light Snow,290,2013-01-14 02:35:00
9:55 PM,21.2,17.6,86,29.93,5.0,WNW,8.1,-,N/A,Snow,Light Snow,290,2013-01-14 02:55:00
10:14 PM,21.2,17.6,86,29.94,2.0,West,8.1,-,N/A,Snow,Light Snow,280,2013-01-14 03:14:00
10:35 PM,21.2,17.6,86,29.94,4.0,West,6.9,-,N/A,Snow,Light Snow,280,2013-01-14 03:35:00
10:54 PM,21.2,17.6,86,29.94,5.0,West,8.1,-,N/A,Snow,Light Snow,280,2013-01-14 03:54:00
11:15 PM,21.2,17.6,86,29.95,7.0,West,8.1,-,N/A,Snow,Light Snow,280,2013-01-14 04:15:00
11:35 PM,21.2,15.8,80,29.96,4.0,West,10.4,-,N/A,Snow,Light Snow,280,2013-01-14 04:35:00
11:54 PM,19.4,15.8,86,29.97,2.5,West,10.4,-,N/A,Snow,Light Snow,280,2013-01-14 04:54:00